When you browse on this site, cookies collect data to enhance your experience and personalize the content and advertising you see.
Visit our Privacy Policy to learn more. By continuing to use the site, you agree to this use of cookies and data.
  • In Hungary
  • List of Countries
  • For 7 days
  • Water Temperature
  • Satellite Maps
  • Weather Map
  • News
  • Weather Widgets
  • user-avatar
    Login

    Hourly Weather Zundert

    Today, 26 June, Wednesday

    Time Temperature Precipitation Wind Pressure Humidity
    00:00 +19°C° 0 mm 2 mps 765 mmHg 89%
    01:00 +18°C° 0 mm 2 mps 765 mmHg 90%
    02:00 +18°C° 0 mm 2 mps 765 mmHg 91%
    03:00 +18°C° 0 mm 2 mps 765 mmHg 92%
    04:00 +18°C° 0 mm 2 mps 766 mmHg 88%
    05:00 +19°C° 0 mm 2 mps 766 mmHg 85%
    06:00 +20°C° 0 mm 2 mps 767 mmHg 81%
    07:00 +21°C° 0 mm 2 mps 767 mmHg 77%
    08:00 +24°C° 0 mm 2 mps 767 mmHg 73%
    09:00 +25°C° 0 mm 2 mps 767 mmHg 68%
    10:00 +27°C° 0 mm 3 mps 768 mmHg 66%
    11:00 +28°C° 0 mm 3 mps 768 mmHg 63%
    12:00 +29°C° 0 mm 3 mps 768 mmHg 61%
    13:00 +28°C° 0 mm 4 mps 768 mmHg 61%
    14:00 +28°C° 0 mm 5 mps 768 mmHg 62%
    15:00 +28°C° 0 mm 5 mps 768 mmHg 63%
    16:00 +26°C° 0 mm 5 mps 768 mmHg 66%
    17:00 +25°C° 0 mm 5 mps 768 mmHg 69%
    18:00 +22°C° 0 mm 6 mps 768 mmHg 72%
    19:00 +21°C° 0 mm 5 mps 769 mmHg 75%
    20:00 +19°C° 0 mm 5 mps 769 mmHg 77%
    21:00 +16°C° 0 mm 5 mps 769 mmHg 80%
    22:00 +16°C° 0 mm 5 mps 770 mmHg 82%
    23:00 +15°C° 0 mm 5 mps 770 mmHg 84%

    Tomorrow, 27 June, Thursday

    Time Temperature Precipitation Wind Pressure Humidity
    00:00 +14°C° 0 mm 4 mps 770 mmHg 86%
    01:00 +14°C° 0 mm 4 mps 770 mmHg 86%
    02:00 +13°C° 0 mm 4 mps 770 mmHg 86%
    03:00 +13°C° 0 mm 4 mps 770 mmHg 87%
    04:00 +13°C° 0 mm 4 mps 770 mmHg 83%
    05:00 +14°C° 0 mm 5 mps 770 mmHg 80%
    06:00 +14°C° 0 mm 5 mps 770 mmHg 77%
    07:00 +16°C° 0 mm 5 mps 771 mmHg 73%
    08:00 +17°C° 0 mm 5 mps 771 mmHg 69%
    09:00 +19°C° 0 mm 4 mps 771 mmHg 64%
    10:00 +20°C° 0 mm 4 mps 771 mmHg 63%
    11:00 +22°C° 0 mm 4 mps 770 mmHg 61%
    12:00 +23°C° 0 mm 4 mps 770 mmHg 60%
    13:00 +23°C° 0 mm 4 mps 770 mmHg 59%
    14:00 +23°C° 0 mm 4 mps 770 mmHg 58%
    15:00 +23°C° 0 mm 4 mps 770 mmHg 58%
    16:00 +22°C° 0 mm 4 mps 770 mmHg 61%
    17:00 +21°C° 0 mm 4 mps 769 mmHg 64%
    18:00 +21°C° 0 mm 4 mps 769 mmHg 67%
    19:00 +19°C° 0 mm 4 mps 770 mmHg 72%
    20:00 +17°C° 0 mm 4 mps 770 mmHg 76%
    21:00 +14°C° 0 mm 4 mps 770 mmHg 81%
    22:00 +13°C° 0 mm 4 mps 770 mmHg 84%
    23:00 +12°C° 0 mm 4 mps 770 mmHg 88%

    Day after tomorrow, 28 June, Friday

    Time Temperature Precipitation Wind Pressure Humidity
    00:00 +12°C° 0 mm 4 mps 769 mmHg 91%
    01:00 +11°C° 0 mm 3 mps 769 mmHg 92%
    02:00 +11°C° 0 mm 3 mps 769 mmHg 93%
    03:00 +10°C° 0 mm 3 mps 769 mmHg 94%
    04:00 +11°C° 0 mm 3 mps 769 mmHg 89%
    05:00 +12°C° 0 mm 3 mps 769 mmHg 85%
    06:00 +13°C° 0 mm 3 mps 768 mmHg 81%
    07:00 +15°C° 0 mm 4 mps 768 mmHg 74%
    08:00 +18°C° 0 mm 4 mps 768 mmHg 68%
    09:00 +19°C° 0 mm 4 mps 768 mmHg 61%
    10:00 +21°C° 0 mm 4 mps 768 mmHg 57%
    11:00 +22°C° 0 mm 4 mps 768 mmHg 54%
    12:00 +23°C° 0 mm 4 mps 767 mmHg 50%
    13:00 +25°C° 0 mm 4 mps 767 mmHg 50%
    14:00 +25°C° 0 mm 4 mps 767 mmHg 51%
    15:00 +26°C° 0 mm 4 mps 767 mmHg 51%
    16:00 +25°C° 0 mm 4 mps 766 mmHg 56%
    17:00 +23°C° 0 mm 4 mps 766 mmHg 61%
    18:00 +23°C° 0 mm 4 mps 766 mmHg 65%
    19:00 +21°C° 0 mm 3 mps 766 mmHg 70%
    20:00 +19°C° 0 mm 3 mps 766 mmHg 76%
    21:00 +17°C° 0 mm 3 mps 766 mmHg 81%
    22:00 +17°C° 0 mm 3 mps 766 mmHg 83%
    23:00 +16°C° 0 mm 3 mps 765 mmHg 86%

    29 June, Saturday

    Time Temperature Precipitation Wind Pressure Humidity
    00:00 +14°C° 0 mm 3 mps 765 mmHg 88%
    01:00 +14°C° 0 mm 3 mps 765 mmHg 90%
    02:00 +13°C° 0 mm 3 mps 765 mmHg 91%
    03:00 +13°C° 0 mm 3 mps 765 mmHg 93%
    04:00 +14°C° 0 mm 3 mps 764 mmHg 88%
    05:00 +16°C° 0 mm 3 mps 764 mmHg 84%
    06:00 +17°C° 0 mm 3 mps 764 mmHg 80%
    07:00 +20°C° 0 mm 3 mps 763 mmHg 72%
    08:00 +22°C° 0 mm 3 mps 763 mmHg 64%
    09:00 +25°C° 0 mm 3 mps 763 mmHg 57%
    10:00 +26°C° 0 mm 3 mps 763 mmHg 52%
    11:00 +28°C° 0 mm 3 mps 762 mmHg 48%
    12:00 +29°C° 0 mm 3 mps 762 mmHg 44%
    13:00 +30°C° 0 mm 3 mps 761 mmHg 43%
    14:00 +30°C° 0 mm 3 mps 761 mmHg 42%
    15:00 +31°C° 0 mm 3 mps 760 mmHg 41%
    16:00 +31°C° 0 mm 2 mps 760 mmHg 46%
    17:00 +30°C° 0 mm 2 mps 760 mmHg 51%
    18:00 +29°C° 0 mm 2 mps 759 mmHg 55%
    19:00 +28°C° 0 mm 2 mps 759 mmHg 59%
    20:00 +26°C° 0 mm 2 mps 759 mmHg 63%
    21:00 +24°C° 0 mm 2 mps 759 mmHg 67%
    22:00 +22°C° 0 mm 3 mps 759 mmHg 71%
    23:00 +22°C° 0 mm 3 mps 759 mmHg 76%

    30 June, Sunday

    Time Temperature Precipitation Wind Pressure Humidity
    00:00 +21°C° 0 mm 3 mps 759 mmHg 80%
    01:00 +21°C° 0 mm 3 mps 759 mmHg 84%
    02:00 +20°C° 0 mm 3 mps 759 mmHg 88%
    03:00 +20°C° 0 mm 3 mps 759 mmHg 91%
    04:00 +20°C° 0 mm 3 mps 759 mmHg 89%
    05:00 +21°C° 0 mm 4 mps 759 mmHg 87%
    06:00 +21°C° 0 mm 4 mps 759 mmHg 84%
    07:00 +22°C° 0 mm 4 mps 760 mmHg 82%
    08:00 +22°C° 0 mm 4 mps 760 mmHg 80%
    09:00 +22°C° 0 mm 4 mps 761 mmHg 79%
    10:00 +23°C° 0 mm 4 mps 761 mmHg 71%
    11:00 +25°C° 0 mm 5 mps 761 mmHg 63%
    12:00 +25°C° 0 mm 5 mps 761 mmHg 55%
    13:00 +25°C° 0 mm 5 mps 761 mmHg 56%
    14:00 +25°C° 0 mm 5 mps 761 mmHg 56%
    15:00 +25°C° 0 mm 5 mps 761 mmHg 56%
    16:00 +23°C° 0 mm 5 mps 761 mmHg 60%
    17:00 +22°C° 0 mm 4 mps 762 mmHg 64%
    18:00 +21°C° 0 mm 4 mps 762 mmHg 67%
    19:00 +20°C° 0 mm 3 mps 762 mmHg 74%
    20:00 +18°C° 0 mm 3 mps 762 mmHg 80%
    21:00 +17°C° 0 mm 3 mps 762 mmHg 86%
    22:00 +16°C° 0 mm 3 mps 762 mmHg 88%
    23:00 +16°C° 0 mm 3 mps 762 mmHg 90%

    1 July, Monday

    Time Temperature Precipitation Wind Pressure Humidity
    00:00 +15°C° 0 mm 2 mps 762 mmHg 92%
    01:00 +14°C° 0 mm 3 mps 762 mmHg 93%
    02:00 +14°C° 0 mm 3 mps 762 mmHg 94%
    03:00 +14°C° 0 mm 3 mps 762 mmHg 95%
    04:00 +16°C° 0 mm 3 mps 762 mmHg 92%
    05:00 +16°C° 0 mm 3 mps 762 mmHg 89%
    06:00 +17°C° 0 mm 3 mps 762 mmHg 86%
    07:00 +18°C° 0 mm 4 mps 762 mmHg 81%
    08:00 +20°C° 0 mm 4 mps 762 mmHg 75%
    09:00 +21°C° 0 mm 5 mps 762 mmHg 70%
    10:00 +21°C° 0 mm 5 mps 762 mmHg 69%
    11:00 +21°C° 0 mm 5 mps 762 mmHg 68%
    12:00 +20°C° 0 mm 5 mps 762 mmHg 67%
    13:00 +20°C° 0 mm 6 mps 762 mmHg 64%
    14:00 +20°C° 0 mm 6 mps 762 mmHg 62%
    15:00 +20°C° 0 mm 6 mps 763 mmHg 60%
    16:00 +19°C° 0 mm 6 mps 763 mmHg 62%
    17:00 +17°C° 0 mm 5 mps 763 mmHg 64%
    18:00 +17°C° 0 mm 5 mps 763 mmHg 66%
    19:00 +17°C° 0 mm 4 mps 763 mmHg 67%
    20:00 +16°C° 0 mm 3 mps 764 mmHg 69%
    21:00 +14°C° 0 mm 3 mps 764 mmHg 70%
    22:00 +13°C° 0 mm 3 mps 764 mmHg 73%
    23:00 +13°C° 0 mm 3 mps 765 mmHg 75%
    Show more